Torna al catalogo

NOAA 16 DEB

AttivoSSO
NORAD 41214·DEBRIS·🇺🇸 United States

Lanciato Sep 21, 2000 da Vandenberg Space Force Base

Loading…

Prossimi Passaggi (prossime 24 ore)

TLE

AggiornatoSource: Space-Track

Epoca: Sep 14, 2026, 07:49 UTC

1 41214U 00055DT  26257.32624384  .00004753  00000-0  13008-2 0  9999
2 41214  98.8043  32.8764 0025869 174.0008 186.1498 14.47483907560034

Traccia NOAA 16 DEB in tempo reale con AllMySat

Download on the App Store